Hourly Data Report for October 09, 2015

All times are specified in Local Standard Time (LST). Add 1 hour to adjust for Daylight Saving Time where and when it is observed.

BAKER LAKE A
NUNAVUT

64°17'56.000" N
96°04'40.000" W
18.60 m
2300503
71926
YBK

Download Data

Hourly Data (October 2015)
Hourly Data Report for October 9, 2015
Temp Definition
°C
Dew Point Temp Definition
°C
Rel Hum Definition
%
Wind Dir Definition
10's deg

Wind Spd Definition
km/h
Visibility Definition
km
Stn Press Definition
kPa
Hmdx Definition


Wind Chill Definition


Weather Definition


TIME
00:00 Legend Double Dagger -6.6 -10.3 75 31 23 24.1 100.99   -14 Mainly Clear
01:00 Legend Double Dagger -6.8 -10.7 74 30 22 24.1 101.00   -14 LegendNANA
02:00 Legend Double Dagger -7.7 -10.7 79 29 21 24.1 101.02   -15 LegendNANA
03:00 Legend Double Dagger -7.3 -10.5 78 29 22 24.1 101.00   -15 Clear
04:00 Legend Double Dagger -6.8 -10.0 78 29 18 24.1 100.99   -13 LegendNANA
05:00 Legend Double Dagger -6.1 -8.7 82 28 20 24.1 100.97   -13 LegendNANA
06:00 Legend Double Dagger -5.7 -8.6 80 31 27 8.1 100.95   -14 Snow
07:00 Legend Double Dagger -6.6 -9.5 80 30 27 16.1 100.94   -15 LegendNANA
08:00 Legend Double Dagger -6.7 -9.8 79 31 30 32.2 100.95   -15 LegendNANA
09:00 Legend Double Dagger -6.2 -9.6 77 32 36 32.2 100.96   -15 Mainly Clear
10:00 Legend Double Dagger -5.6 -9.7 73 32 35 32.2 100.98   -14 Snow
11:00 Legend Double Dagger -5.3 -9.2 74 32 31 32.2 100.99   -14 Snow
12:00 Legend Double Dagger -4.9 -9.6 70 32 35 32.2 101.01   -13 Mostly Cloudy
13:00 Legend Double Dagger -4.9 -9.0 73 31 31 32.2 101.03   -13 LegendNANA
14:00 Legend Double Dagger -5.2 -9.1 74 31 33 32.2 101.02   -14 LegendNANA
15:00 Legend Double Dagger -5.1 -8.9 75 32 23 32.2 101.07   -12 Mainly Clear
16:00 Legend Double Dagger -5.9 -9.6 75 31 26 32.2 101.06   -14 LegendNANA
17:00 Legend Double Dagger -7.2 -10.3 79 31 21 32.2 101.09   -15 LegendNANA
18:00 Legend Double Dagger -8.1 -10.5 83 30 16 32.2 101.13   -15 Mainly Clear
19:00 Legend Double Dagger -8.6 -10.8 84 30 18 24.1 101.16   -16 LegendNANA
20:00 Legend Double Dagger -8.7 -10.6 86 32 18 24.1 101.14   -16 LegendNANA
21:00 Legend Double Dagger -10.1 -12.0 86 33 13 24.1 101.09   -16 Mainly Clear
22:00 Legend Double Dagger -9.7 -11.3 88 33 11 24.1 101.02   -15 LegendNANA
23:00 Legend Double Dagger -9.4 -11.0 88 30 6 24.1 101.01   -13 LegendNANA

Notes on Data Quality.

Legend

  • E = Estimated
  • M = Missing
  • NA = Not Available
  • ‡ = Partner data that is not subject to review by the National Climate Archives
Date modified: